Tracking 29892 objects as of 21-Nov-2024
HD Live streaming from Space Station
objects crossing your sky now

ONEWEB-0209

Track ONEWEB-0209 now!
10-day predictions
ONEWEB-0209 is classified as:


NORAD ID: 48215
Int'l Code: 2021-031F
Perigee: 1,211.7 km
Apogee: 1,214.2 km
Inclination: 87.9 °
Period: 109.5 minutes
Semi major axis: 7583 km
RCS: Unknown
Launch date: April 25, 2021
Source: United Kingdom (UK)
Launch site: VOSTOCHNY COSMODROME (VOSTO)
Your satellite tracking list
Your tracking list is empty




NASA's NSSDC Master Catalog

Two Line Element Set (TLE):
1 48215U 21031F   24325.61879802 -.00000027  00000-0 -10760-3 0  9992
2 48215  87.9032  43.7747 0001644 106.1041 254.0269 13.14500279173024
Source of the keplerian elements: AFSPC